Total_Precipitation_Accumulation
3.03 3.10 3.04 3.02 2.82 2.80 2.81 2.72 2.55 2.57 2.49 2.23 1.97 1.96 2.03 1.98 2.09 2.34 2.42 2.57 2.60 2.96 3.52 3.83 3.83 3.84 4.00 4.05 3.82 3.66 3.50 3.32 3.18 2.83 2.47 2.22 2.10 2.02 1.87 1.81 1.78 1.73 1.76
3.32 3.37 3.32 3.29 3.22 3.13 3.17 2.98 2.81 2.96 2.83 2.69 2.47 2.33 2.24 2.32 2.31 2.39 2.58 2.74 2.66 2.67 3.07 3.51 3.76 3.97 4.24 4.30 4.09 3.68 3.46 3.45 3.53 3.30 2.96 2.64 2.38 2.24 2.10 1.99 1.90 1.82 1.77
3.35 3.48 3.63 3.57 3.57 3.50 3.49 3.40 3.33 3.41 3.10 2.91 2.71 2.57 2.54 2.63 2.60 2.54 2.67 2.83 2.75 2.80 2.85 2.97 3.18 3.45 3.79 4.10 4.22 4.06 3.69 3.48 3.53 3.52 3.36 3.09 2.77 2.55 2.39 2.23 2.15 2.11 2.03
3.40 3.72 3.83 3.87 3.93 3.84 3.91 3.96 3.84 3.69 3.56 3.32 3.08 2.74 2.62 2.80 2.81 2.77 2.77 2.80 2.98 2.90 2.90 2.79 2.84 2.95 3.27 3.75 3.99 4.23 4.22 3.99 3.70 3.54 3.44 3.29 3.11 2.87 2.64 2.40 2.31 2.31 2.27
3.92 4.07 4.16 4.24 4.30 4.34 4.35 4.14 4.29 4.07 4.00 3.81 3.34 3.05 2.76 2.69 2.71 2.64 2.74 2.66 2.77 2.86 2.97 2.91 2.85 2.86 3.08 3.59 3.81 4.09 4.33 4.37 4.24 3.92 3.67 3.46 3.37 3.22 3.00 2.79 2.60 2.46 2.39
4.59 4.73 4.61 4.65 4.71 4.80 4.67 4.65 4.73 4.50 4.19 4.13 3.64 3.35 3.08 2.79 2.75 2.74 2.73 2.80 2.71 2.53 2.72 2.87 3.02 2.85 3.05 3.24 3.46 3.78 4.12 4.40 4.46 4.28 4.15 4.01 3.78 3.52 3.16 2.86 2.64 2.51 2.43
5.56 5.62 5.33 5.32 5.23 5.10 4.88 4.84 4.74 4.50 4.23 4.20 4.10 3.67 3.07 2.67 2.59 2.47 2.48 2.68 2.67 2.56 2.64 2.78 2.82 2.74 2.64 2.77 2.88 3.21 3.68 4.19 4.56 4.53 4.35 4.16 3.86 3.61 3.33 3.04 2.81 2.68 2.54
6.40 6.46 6.42 6.14 5.94 5.65 5.15 4.80 4.68 4.44 4.06 4.19 4.25 4.22 3.51 3.02 2.51 2.06 2.14 2.18 2.26 2.51 2.49 2.46 2.60 2.72 2.60 2.62 2.43 2.64 2.95 3.44 4.05 4.40 4.43 4.17 3.95 3.76 3.56 3.36 3.16 2.99 2.78
6.45 6.64 6.62 6.39 6.03 5.47 4.90 4.75 4.72 4.57 4.28 4.21 4.15 4.40 3.82 3.26 2.82 2.32 2.01 1.91 2.05 2.20 2.22 2.25 2.31 2.41 2.40 2.49 2.44 2.47 2.60 2.81 3.38 3.92 4.08 3.83 3.63 3.51 3.48 3.39 3.33 3.19 3.05
6.20 6.13 5.97 5.56 5.19 4.84 4.53 4.38 4.44 4.34 4.33 4.13 4.05 3.78 3.53 3.22 3.00 2.63 2.16 1.93 1.99 2.05 2.06 2.02 2.07 2.27 2.37 2.42 2.44 2.35 2.29 2.41 2.82 3.30 3.61 3.58 3.42 3.33 3.35 3.34 3.31 3.32 3.33
5.40 4.96 4.62 4.42 4.36 4.20 4.00 3.86 3.86 3.77 3.59 3.50 3.50 3.49 3.46 3.19 2.88 2.71 2.42 2.21 2.15 1.96 1.94 2.04 2.11 2.24 2.42 2.46 2.48 2.40 2.29 2.16 2.31 2.59 2.88 3.05 3.19 3.21 3.26 3.39 3.46 3.47 3.48
4.60 4.04 3.76 3.59 3.50 3.34 3.13 3.02 3.03 3.04 3.12 3.18 3.28 3.30 3.27 3.20 3.00 2.97 2.77 2.51 2.38 2.22 2.11 2.09 2.11 2.24 2.46 2.58 2.49 2.66 2.32 2.13 2.11 2.22 2.35 2.50 2.72 2.83 2.93 3.11 3.37 3.50 3.60
4.17 3.68 3.26 3.05 2.80 2.61 2.54 2.57 2.56 2.55 2.68 2.80 2.90 2.99 2.99 2.91 2.82 2.89 3.01 2.78 2.51 2.34 2.24 2.15 2.13 2.25 2.30 2.54 2.75 2.84 2.43 2.24 2.08 2.00 2.06 2.20 2.35 2.45 2.51 2.56 2.81 3.05 3.26
3.54 3.25 2.85 2.53 2.29 2.16 2.08 2.19 2.19 2.20 2.31 2.46 2.54 2.74 2.71 2.60 2.68 2.76 2.90 3.03 2.94 2.60 2.31 2.19 2.20 2.24 2.26 2.34 2.60 2.71 2.33 2.31 2.03 1.92 1.92 2.05 2.16 2.26 2.30 2.27 2.42 2.63 2.76
2.67 2.54 2.35 2.18 2.05 1.99 2.00 2.04 2.00 2.00 2.16 2.28 2.32 2.45 2.56 2.53 2.57 2.62 2.75 2.88 2.97 2.79 2.49 2.31 2.25 2.21 2.24 2.31 2.53 2.13 2.07 2.27 2.10 1.95 1.86 1.83 1.84 1.98 2.07 2.01 1.98 2.07 2.15
2.00 2.00 1.96 1.96 1.92 1.85 1.89 1.96 1.86 1.87 1.99 2.02 2.03 2.15 2.26 2.29 2.40 2.45 2.56 2.68 2.73 2.69 2.53 2.26 2.21 2.20 2.17 2.02 2.22 1.94 1.98 2.15 1.99 1.88 1.77 1.73 1.70 1.75 1.83 1.88 1.87 1.83 1.82
1.69 1.69 1.72 1.76 1.78 1.77 1.79 1.78 1.67 1.69 1.75 1.92 2.02 2.09 2.14 2.16 2.23 2.21 2.23 2.29 2.40 2.57 2.69 2.53 2.34 2.27 2.27 2.18 2.05 1.83 1.73 1.73 1.69 1.78 1.75 1.72 1.66 1.63 1.69 1.70 1.64 1.60 1.57
1.60 1.61 1.61 1.59 1.65 1.75 1.80 1.72 1.59 1.56 1.67 1.79 1.92 2.07 2.05 1.98 2.02 2.06 2.12 2.10 2.14 2.31 2.48 2.47 2.32 2.17 2.16 2.14 2.08 1.98 1.66 1.51 1.50 1.54 1.49 1.46 1.47 1.48 1.45 1.48 1.47 1.43 1.40
1.60 1.55 1.48 1.49 1.56 1.61 1.63 1.60 1.52 1.51 1.55 1.61 1.69 1.74 1.79 1.81 1.77 1.77 1.82 1.88 1.87 1.90 2.11 2.18 2.12 2.05 1.98 1.93 2.02 1.98 1.79 1.80 1.45 1.38 1.31 1.24 1.22 1.21 1.20 1.19 1.23 1.29 1.30
1.53 1.56 1.51 1.46 1.45 1.38 1.29 1.26 1.26 1.32 1.35 1.34 1.38 1.38 1.45 1.55 1.60 1.64 1.59 1.66 1.72 1.85 1.94 2.01 1.95 1.91 1.89 1.79 1.87 1.91 1.87 1.74 1.54 1.28 1.29 1.16 1.08 1.01 0.99 1.01 1.02 1.05 1.10
1.33 1.38 1.42 1.36 1.23 1.08 0.94 0.96 1.02 1.06 1.13 1.16 1.18 1.12 1.09 1.27 1.41 1.39 1.29 1.43 1.61 1.78 1.84 1.86 1.79 1.71 1.65 1.74 1.73 1.69 1.72 1.71 1.61 1.44 1.46 1.26 1.16 1.08 1.08 1.06 1.01 0.98 1.01
1.46 1.37 1.31 1.24 1.13 0.92 0.91 0.87 0.96 1.09 1.18 1.14 1.17 1.15 1.05 1.08 1.14 1.11 1.06 1.19 1.42 1.51 1.60 1.73 1.75 1.69 1.64 1.68 1.72 1.71 1.76 1.81 1.79 1.56 1.59 1.46 1.33 1.33 1.22 1.12 1.07 0.99 0.97
1.56 1.47 1.33 1.28 1.24 1.15 1.01 0.86 0.88 0.99 1.11 1.12 1.12 1.14 0.99 0.91 1.03 1.05 1.06 1.07 1.16 1.20 1.32 1.58 1.74 1.66 1.67 1.75 1.87 1.83 1.92 1.93 1.81 1.71 1.83 1.75 1.47 1.36 1.10 1.01 1.08 0.98 0.97
1.54 1.49 1.39 1.27 1.18 0.99 0.84 0.73 0.75 0.86 1.05 1.12 1.11 1.15 1.17 1.08 0.97 0.98 0.99 1.03 1.11 1.17 1.17 1.23 1.48 1.57 1.59 1.72 1.85 1.92 2.02 1.95 1.83 1.78 1.90 1.93 1.57 1.44 1.18 1.16 1.11 0.95 0.92
1.40 1.36 1.28 1.19 1.13 0.98 0.78 0.65 0.69 0.87 1.06 1.09 1.06 1.06 1.12 1.11 1.04 0.95 0.99 1.12 1.19 1.23 1.06 1.09 1.19 1.30 1.38 1.51 1.61 1.73 1.98 2.13 1.98 1.73 1.72 1.87 1.65 1.54 1.39 1.29 1.15 1.03 0.93
1.29 1.19 1.11 1.12 1.11 1.07 0.93 0.77 0.76 0.84 0.99 1.02 1.06 1.05 0.98 1.01 1.02 0.96 1.00 1.14 1.21 1.21 1.13 1.12 1.29 1.39 1.38 1.48 1.56 1.68 1.96 2.05 1.93 1.84 1.61 1.70 1.66 1.70 1.68 1.37 1.23 1.17 1.07